Simultaneous Nadir Overpasses (SNOs) Predictions

Prediction of SNOs over PacNW region [( 10.00, 139.50) to ( 22.70, 165.60)] between AQUA and NPP Satellites:

Table of predicted SNOs over PacNW region for the next 30.0 days since TLE Epoch: 10/26/2019
Index Date (AQUA) Time (AQUA) AQUA Lat,Lon Date (NPP) Time (NPP) NPP Lat,Lon Distance(km) Time Diff (sec)
1 10/29/2019 15:59:13 22.63, 147.47 10/29/2019 16:02:00 23.30, 144.55 308.00 167
2 11/06/2019 15:09:44 22.59, 159.83 11/06/2019 15:11:14 23.18, 157.20 276.88 90
3 11/09/2019 03:31:33 22.69, 147.51 11/09/2019 03:28:03 24.71, 145.23 322.83 210
4 11/14/2019 15:59:07 22.61, 147.48 11/14/2019 16:01:55 23.26, 144.53 311.03 168
5 11/22/2019 15:09:35 22.61, 159.86 11/22/2019 15:11:07 23.22, 157.20 280.54 92




NCC Satellite Simultaneous Nadir Overpasses (SNOs) Prediction Service
